Location: Gleizolles
(44.4833°N, 6.7667°E)
Time: 13:14:21
(UTC+00:00)

STRAND 1 - Visible Passes

Search period start: 08 December 2022 00:00
Search period end: 18 December 2022 00:00
Orbit: 766 x 781 km, 98.4° (Epoch: 07 December)

Date Brightness Start Highest point End Pass type
(mag) Time Alt. Az. Time Alt. Az. Time Alt. Az.
08 Dec ? 03:58:09 10° E 04:00:54 15° ENE 04:03:39 10° NNE visible
08 Dec ? 05:34:17 10° SSE 05:39:24 83° WSW 05:44:32 10° NNW visible
08 Dec ? 17:49:14 25° SE 17:49:14 25° SE 17:52:03 10° SSE visible
08 Dec ? 19:29:37 20° WSW 19:29:37 20° WSW 19:31:25 10° SW visible
09 Dec ? 05:00:17 10° SE 05:05:12 49° ENE 05:10:07 10° N visible
09 Dec ? 17:14:31 13° ESE 17:14:31 13° ESE 17:15:48 10° ESE visible
09 Dec ? 18:54:53 34° SSW 18:54:53 34° SSW 18:57:45 10° SSW visible
10 Dec ? 04:27:01 10° ESE 04:31:10 26° ENE 04:35:19 10° N visible
10 Dec ? 06:05:15 10° S 06:10:07 43° W 06:14:59 10° NNW visible
10 Dec ? 18:20:10 37° SSE 18:20:10 37° SSE 18:23:25 10° S visible
10 Dec ? 20:00:32 11° WSW 20:00:32 11° WSW 20:00:51 10° WSW visible
11 Dec ? 03:54:49 10° E 03:57:19 14° ENE 03:59:49 10° NNE visible
11 Dec ? 05:30:38 10° SSE 05:35:45 89° WSW 05:40:54 10° NNW visible
11 Dec ? 17:45:25 24° ESE 17:45:25 24° ESE 17:48:16 10° SSE visible
11 Dec ? 19:25:48 23° WSW 19:25:48 23° WSW 19:27:53 10° SW visible
12 Dec ? 04:56:43 10° SE 05:01:34 46° ENE 05:06:26 10° N visible
12 Dec ? 17:10:41 12° ESE 17:10:41 12° ESE 17:11:49 10° ESE visible
12 Dec ? 18:51:04 38° SSW 18:51:04 38° SSW 18:54:09 10° SSW visible
13 Dec ? 04:23:32 10° ESE 04:27:34 24° ENE 04:31:36 10° N visible
13 Dec ? 06:01:33 10° S 06:06:27 47° W 06:11:22 10° NNW visible
13 Dec ? 18:16:19 38° SSE 18:16:19 38° SSE 18:19:43 10° S visible
13 Dec ? 19:56:41 13° WSW 19:56:41 13° WSW 19:57:23 10° WSW visible
14 Dec ? 03:51:31 10° E 03:53:43 13° ENE 03:55:56 10° NNE visible
14 Dec ? 05:27:00 10° SSE 05:32:07 86° ENE 05:37:14 10° NNW visible
14 Dec ? 17:41:34 23° ESE 17:41:34 23° ESE 17:44:30 10° SSE visible
14 Dec ? 19:21:57 25° WSW 19:21:57 25° WSW 19:24:20 10° SW visible
15 Dec ? 04:53:09 10° SE 04:57:57 43° ENE 05:02:45 10° N visible
15 Dec ? 17:06:49 12° ESE 17:06:49 12° ESE 17:07:47 10° ESE visible
15 Dec ? 18:47:11 42° SSW 18:47:11 42° SSW 18:50:31 10° SSW visible
16 Dec ? 04:20:04 10° ESE 04:23:57 23° ENE 04:27:52 10° NNE visible
16 Dec ? 05:57:50 10° S 06:02:47 50° W 06:07:45 10° NNW visible
16 Dec ? 18:12:26 39° SE 18:12:26 39° SE 18:16:01 10° S visible
16 Dec ? 19:52:48 15° WSW 19:52:48 15° WSW 19:53:54 10° WSW visible
17 Dec ? 03:48:16 10° ENE 03:50:08 12° NE 03:52:00 10° NE visible
17 Dec ? 05:23:22 10° SSE 05:28:28 80° ENE 05:33:34 10° NNW visible
17 Dec ? 17:37:40 23° ESE 17:37:40 23° ESE 17:40:42 10° SSE visible
17 Dec ? 19:18:03 29° WSW 19:18:03 29° WSW 19:20:46 10° SW visible
